Location: Arbon
(43.0005°N, 0.7472°E)
Time: 02:00:23
(UTC+00:00)

Cosmos 1464 Rocket - Pass Details

Date: 07 August 2020
Orbit: 952 x 1002 km, 82.9° (Epoch: 19 September)

Event Time Altitude Azimuth Distance (km) Brightness Sun altitude
Exits shadow 00:08:51 58° 81° (E) 1,132 4.2 -30.6°
Drops below altitude 10° 00:14:41 10° 15° (NNE) 2,724 7.2 -30.6°
Sets 00:17:13 0° 12° (NNE) 3,669 8.2 -30.6°
